Accueil
METAR-TAF:

METAR-TAF

Aéroports :

P11-b, Pays-Bas

Plate-forme pétrolière

latitude: 52-21-36N, longitude: 3-20-30E, altitude: 24 m

Observation

Le bulletin a été fait il y a 17 minutes, à 23:55 UTC
Vent 18 kt de nord-est
Température 14°C
Humidité 88%
Pression 1016 hPa
Visibilité 10 km ou plus
Nuages fragmentés à une hauteur de 4600 ft

METAR: EHPG 282355Z AUTO 04018KT 9999 BKN046 14/12 Q1016

Heure: 02:12 (00:12 UTC)


TAF: absent

Observations et prévisions météorologiques de plus de 4000 aéroports (messages METAR et TAF).

Les stations disponibles sont représentées par des disques jaunes et rouges sur la carte.

Passer la souris dessus pour voir le nom de la station.

Cliquer dessus pour voir les observations et prévisions météorologiques.

Pour changer de carte: cliquez sur les boutons verts avec une croix noire pour zoomer, sur le bouton vert avec un tiret pour effectuer un zoom arrière, ou sur les flèches vertes pour les cartes adjacentes.


METAR-TAF: